{"data":{"norad_id":55772,"epoch":"2026-09-20T22:43:04.812672Z","epoch_age_seconds":64478,"freshness":"FRESH","line1":"1 55772U 23028AH  26263.94658348  .00000707  00000+0  67029-4 0  9998","line2":"2 55772  69.9983  92.0281 0002956 269.1729  90.9092 14.98314283195784","mean_motion":14.98314283,"eccentricity":0.0002956,"inclination_deg":69.9983,"raan_deg":92.0281,"arg_perigee_deg":269.1729,"mean_anomaly_deg":90.9092,"bstar":6.7029e-5,"rev_number":19578,"period_min":96.108007267792,"perigee_km":570.05000350939,"apogee_km":574.15898628117,"semimajor_km":6950.2414948953,"source":"CELESTRAK","updated_at":"2026-09-21T09:00:33.317450Z"}}